TimeAKDT,TemperatureF,Dew PointF,Humidity,Sea Level PressureIn,VisibilityMPH,Wind Direction,Wind SpeedMPH,Gust SpeedMPH,PrecipitationIn,Events,Conditions,WindDirDegrees,DateUTC
12:53 AM,68.0,42.1,39,29.82,10.0,ESE,3.5,-,N/A,,Scattered Clouds,120,2013-06-20 08:53:00
1:53 AM,66.0,44.1,45,29.83,10.0,SW,5.8,-,N/A,,Scattered Clouds,230,2013-06-20 09:53:00
2:53 AM,61.0,44.1,54,29.84,10.0,NE,3.5,-,N/A,,Scattered Clouds,50,2013-06-20 10:53:00
3:53 AM,62.1,41.0,46,29.84,10.0,NNE,4.6,-,N/A,,Scattered Clouds,20,2013-06-20 11:53:00
4:53 AM,62.1,42.1,48,29.84,10.0,Calm,Calm,-,N/A,,Scattered Clouds,0,2013-06-20 12:53:00
5:53 AM,60.1,43.0,53,29.85,10.0,Calm,Calm,-,N/A,,Scattered Clouds,0,2013-06-20 13:53:00
6:53 AM,64.0,43.0,46,29.85,10.0,Calm,Calm,-,N/A,,Scattered Clouds,0,2013-06-20 14:53:00
7:53 AM,69.1,44.1,40,29.84,10.0,NNE,4.6,-,N/A,,Partly Cloudy,20,2013-06-20 15:53:00
8:53 AM,72.0,45.0,38,29.85,10.0,Calm,Calm,-,N/A,,Partly Cloudy,0,2013-06-20 16:53:00
9:53 AM,75.0,46.0,36,29.86,10.0,Calm,Calm,-,N/A,,Partly Cloudy,0,2013-06-20 17:53:00
10:53 AM,75.9,45.0,33,29.85,10.0,SSE,5.8,-,N/A,,Partly Cloudy,160,2013-06-20 18:53:00
11:53 AM,78.1,45.0,31,29.85,10.0,SSE,6.9,-,N/A,,Partly Cloudy,160,2013-06-20 19:53:00
12:53 PM,81.0,45.0,28,29.85,10.0,Variable,5.8,-,N/A,,Scattered Clouds,0,2013-06-20 20:53:00
1:53 PM,82.0,45.0,27,29.84,10.0,Variable,4.6,-,N/A,,Scattered Clouds,0,2013-06-20 21:53:00
2:53 PM,82.0,45.0,27,29.83,10.0,Variable,4.6,-,N/A,,Scattered Clouds,0,2013-06-20 22:53:00
3:53 PM,80.1,45.0,29,29.83,10.0,South,3.5,-,N/A,,Scattered Clouds,170,2013-06-20 23:53:00
4:53 PM,82.9,43.0,24,29.81,10.0,Variable,6.9,-,N/A,,Scattered Clouds,0,2013-06-21 00:53:00
5:53 PM,82.0,43.0,25,29.80,10.0,Variable,6.9,-,N/A,,Scattered Clouds,0,2013-06-21 01:53:00
6:53 PM,84.0,43.0,24,29.80,10.0,WSW,6.9,-,N/A,,Scattered Clouds,240,2013-06-21 02:53:00
7:08 PM,82.4,42.8,25,29.78,10.0,SW,9.2,-,N/A,Thunderstorm,Thunderstorm,230,2013-06-21 03:08:00
7:53 PM,82.9,42.1,24,29.79,10.0,SW,6.9,-,N/A,Thunderstorm,Thunderstorm,230,2013-06-21 03:53:00
8:23 PM,80.6,42.8,26,29.77,10.0,Variable,4.6,-,N/A,,Mostly Cloudy,0,2013-06-21 04:23:00
8:53 PM,80.1,45.0,29,29.78,10.0,Variable,3.5,-,N/A,,Mostly Cloudy,0,2013-06-21 04:53:00
9:53 PM,77.0,46.0,33,29.79,10.0,Calm,Calm,-,N/A,,Mostly Cloudy,0,2013-06-21 05:53:00
10:53 PM,73.0,51.1,46,29.79,10.0,SE,4.6,-,N/A,,Mostly Cloudy,130,2013-06-21 06:53:00
11:53 PM,69.1,51.1,53,29.79,10.0,ESE,3.5,-,N/A,,Scattered Clouds,120,2013-06-21 07:53:00